Location: Blackie
(50.6050°N, 113.6230°W)
Time: 13:03:31
(UTC+00:00)

N. Korean satellite - Pass Details

Date: 07 December 2021
Orbit: 447 x 490 km, 97.3° (Epoch: 27 January)

Event Time Altitude Azimuth Distance (km) Brightness Sun altitude
Rises 12:46:19 0° 16° (NNE) 2,468 10.3 -23.5°
Reaches altitude 10° 12:48:23 10° 20° (NNE) 1,588 9.3 -23.2°
Maximum altitude 12:51:45 60° 101° (E) 520 6.9 -22.7°
Drops below altitude 10° 12:55:05 10° 182° (S) 1,573 9.2 -22.1°
Sets 12:57:07 0° 186° (S) 2,442 10.2 -21.8°
